Time,TemperatureF,DewpointF,PressureIn,WindDirection,WindDirectionDegrees,WindSpeedMPH,WindSpeedGustMPH,Humidity,HourlyPrecipIn,Conditions,Clouds,dailyrainin,SoftwareType,DateUTC
2013-01-12 00:00:00,36.4,35.1,30.12,SE,135,0.8,2.3,95,0.01,-RA,,0.16,WeatherDisplay:10.37,2013-01-12 05:00:00,
2013-01-12 00:01:00,36.3,35.0,30.12,SE,135,1.0,1.2,95,0.01,-RA,,0.00,WeatherDisplay:10.37,2013-01-12 05:01:00,
2013-01-12 00:06:00,36.4,35.1,30.11,SE,135,0.7,2.3,95,0.00,RA,,0.00,WeatherDisplay:10.37,2013-01-12 05:06:00,
2013-01-12 00:11:00,36.5,35.2,30.10,SE,135,0.6,2.3,95,0.00,OVC,,0.00,WeatherDisplay:10.37,2013-01-12 05:11:00,
2013-01-12 00:16:00,36.5,35.2,30.10,SE,135,0.3,2.3,95,0.00,OVC,,0.00,WeatherDisplay:10.37,2013-01-12 05:16:00,
2013-01-12 00:21:00,36.6,35.3,30.10,SW,225,0.4,1.2,95,0.00,OVC,,0.00,WeatherDisplay:10.37,2013-01-12 05:21:00,
2013-01-12 00:26:00,36.6,35.3,30.10,SW,225,0.5,1.2,95,0.00,OVC,,0.00,WeatherDisplay:10.37,2013-01-12 05:26:00,
2013-01-12 00:31:00,36.6,35.3,30.10,SW,225,1.0,2.3,95,0.00,OVC,,0.00,WeatherDisplay:10.37,2013-01-12 05:31:00,
2013-01-12 00:36:00,36.6,35.3,30.10,SW,225,0.0,0.0,95,0.00,OVC,,0.00,WeatherDisplay:10.37,2013-01-12 05:36:00,
2013-01-12 00:41:00,36.5,35.2,30.10,SW,225,0.0,0.0,95,0.00,OVC,,0.00,WeatherDisplay:10.37,2013-01-12 05:41:00,
2013-01-12 00:46:00,36.4,35.1,30.10,SW,225,0.0,0.0,95,0.00,OVC,,0.00,WeatherDisplay:10.37,2013-01-12 05:46:00,
2013-01-12 00:51:00,36.5,35.2,30.09,SW,225,0.0,0.0,95,0.00,OVC,,0.00,WeatherDisplay:10.37,2013-01-12 05:51:00,
2013-01-12 00:56:00,36.5,35.2,30.09,SW,225,0.0,0.0,95,0.00,OVC,,0.00,WeatherDisplay:10.37,2013-01-12 05:56:00,
2013-01-12 01:01:00,36.5,35.2,30.09,SW,225,0.0,0.0,95,0.00,OVC,,0.00,WeatherDisplay:10.37,2013-01-12 06:01:00,
2013-01-12 01:06:00,36.7,35.4,30.08,SE,135,1.2,2.3,95,0.00,OVC,,0.00,WeatherDisplay:10.37,2013-01-12 06:06:00,
2013-01-12 01:11:00,36.7,35.4,30.08,SE,135,0.2,1.2,95,0.00,OVC,,0.00,WeatherDisplay:10.37,2013-01-12 06:11:00,
2013-01-12 01:16:00,36.7,35.4,30.09,SE,135,0.8,2.3,95,0.00,OVC,,0.00,WeatherDisplay:10.37,2013-01-12 06:16:00,
2013-01-12 01:21:00,36.9,35.6,30.08,SE,135,1.1,2.3,95,0.00,OVC,,0.00,WeatherDisplay:10.37,2013-01-12 06:21:00,
2013-01-12 01:26:00,36.8,35.5,30.08,SE,135,0.0,0.0,95,0.00,OVC,,0.00,WeatherDisplay:10.37,2013-01-12 06:26:00,
2013-01-12 01:31:00,36.9,35.6,30.09,South,180,0.0,0.0,95,0.00,OVC,,0.00,WeatherDisplay:10.37,2013-01-12 06:31:00,
2013-01-12 01:36:00,36.9,35.6,30.09,SE,135,0.0,1.2,95,0.00,OVC,,0.00,WeatherDisplay:10.37,2013-01-12 06:36:00,
2013-01-12 01:41:00,37.1,35.8,30.09,SE,135,0.3,2.0,95,0.00,OVC,,0.00,WeatherDisplay:10.37,2013-01-12 06:41:00,
2013-01-12 01:46:00,37.1,35.8,30.08,SE,135,0.0,0.0,95,0.00,OVC,,0.00,WeatherDisplay:10.37,2013-01-12 06:46:00,
2013-01-12 01:51:00,37.1,35.8,30.08,SE,135,0.0,0.0,95,0.00,OVC,,0.00,WeatherDisplay:10.37,2013-01-12 06:51:00,
2013-01-12 01:56:00,37.2,35.9,30.07,SE,135,1.2,2.3,95,0.00,OVC,,0.00,WeatherDisplay:10.37,2013-01-12 06:56:00,
2013-01-12 02:01:00,37.2,35.9,30.08,SE,135,0.0,0.0,95,0.00,OVC,,0.00,WeatherDisplay:10.37,2013-01-12 07:01:00,
2013-01-12 02:06:00,37.2,35.9,30.09,SE,135,0.0,0.0,95,0.00,OVC,,0.00,WeatherDisplay:10.37,2013-01-12 07:06:00,
2013-01-12 02:11:00,37.1,35.8,30.09,SE,135,0.0,0.0,95,0.00,OVC,,0.00,WeatherDisplay:10.37,2013-01-12 07:11:00,
2013-01-12 02:16:00,37.1,35.8,30.09,SE,135,0.0,0.0,95,0.00,OVC,,0.00,WeatherDisplay:10.37,2013-01-12 07:16:00,
2013-01-12 02:21:00,37.2,35.9,30.10,SE,135,0.0,0.0,95,0.00,OVC,,0.00,WeatherDisplay:10.37,2013-01-12 07:21:00,
2013-01-12 02:26:00,37.1,35.8,30.09,SE,135,0.0,0.0,95,0.00,OVC,,0.00,WeatherDisplay:10.37,2013-01-12 07:26:00,
2013-01-12 02:31:00,37.1,35.8,30.10,SE,135,0.0,0.0,95,0.00,OVC,,0.00,WeatherDisplay:10.37,2013-01-12 07:31:00,
2013-01-12 02:36:00,37.1,35.8,30.09,SE,135,0.0,0.0,95,0.00,OVC,,0.00,WeatherDisplay:10.37,2013-01-12 07:36:00,
2013-01-12 02:41:00,37.0,35.7,30.10,SE,135,0.0,0.0,95,0.00,OVC,,0.00,WeatherDisplay:10.37,2013-01-12 07:41:00,
2013-01-12 02:46:00,37.1,35.8,30.09,SE,135,0.0,0.0,95,0.00,OVC,,0.00,WeatherDisplay:10.37,2013-01-12 07:46:00,
2013-01-12 02:51:00,37.1,35.8,30.09,SE,135,0.0,0.0,95,0.00,OVC,,0.00,WeatherDisplay:10.37,2013-01-12 07:51:00,
2013-01-12 02:56:00,37.1,35.8,30.09,SE,135,0.0,0.0,95,0.00,OVC,,0.00,WeatherDisplay:10.37,2013-01-12 07:56:00,
2013-01-12 03:01:00,37.0,35.7,30.09,SE,135,0.0,0.0,95,0.00,OVC,,0.00,WeatherDisplay:10.37,2013-01-12 08:01:00,
2013-01-12 03:06:00,37.1,35.8,30.09,SE,135,0.0,0.0,95,0.00,OVC,,0.00,WeatherDisplay:10.37,2013-01-12 08:06:00,
2013-01-12 03:11:00,37.2,35.9,30.08,SE,135,0.0,0.0,95,0.00,OVC,,0.00,WeatherDisplay:10.37,2013-01-12 08:11:00,
2013-01-12 03:16:00,37.1,35.8,30.08,SE,135,0.0,0.0,95,0.00,OVC,,0.00,WeatherDisplay:10.37,2013-01-12 08:16:00,
2013-01-12 03:21:00,37.2,35.9,30.08,SE,135,0.0,0.0,95,0.00,OVC,,0.00,WeatherDisplay:10.37,2013-01-12 08:21:00,
2013-01-12 03:26:00,37.2,35.9,30.07,SE,135,0.0,0.0,95,0.00,OVC,,0.00,WeatherDisplay:10.37,2013-01-12 08:26:00,
2013-01-12 03:31:00,37.2,35.9,30.07,SE,135,0.0,0.0,95,0.00,OVC,,0.00,WeatherDisplay:10.37,2013-01-12 08:31:00,
2013-01-12 03:36:00,37.3,36.0,30.08,SE,135,0.0,0.0,95,0.00,OVC,,0.00,WeatherDisplay:10.37,2013-01-12 08:36:00,
2013-01-12 03:41:00,37.1,35.8,30.08,SE,135,0.0,0.0,95,0.00,OVC,,0.00,WeatherDisplay:10.37,2013-01-12 08:41:00,
2013-01-12 03:46:00,37.1,35.8,30.08,SE,135,0.0,0.0,95,0.00,OVC,,0.00,WeatherDisplay:10.37,2013-01-12 08:46:00,
2013-01-12 03:51:00,37.1,35.8,30.08,SE,135,0.0,0.0,95,0.00,OVC,,0.00,WeatherDisplay:10.37,2013-01-12 08:51:00,
2013-01-12 03:56:00,37.1,35.8,30.08,SE,135,0.0,0.0,95,0.00,OVC,,0.00,WeatherDisplay:10.37,2013-01-12 08:56:00,
2013-01-12 04:01:00,37.1,35.8,30.08,SE,135,0.0,0.0,95,0.00,OVC,,0.00,WeatherDisplay:10.37,2013-01-12 09:01:00,
2013-01-12 04:06:00,37.2,35.9,30.08,SE,135,0.0,0.0,95,0.00,OVC,,0.00,WeatherDisplay:10.37,2013-01-12 09:06:00,
2013-01-12 04:11:00,37.1,35.8,30.08,SE,135,0.0,0.0,95,0.00,OVC,,0.00,WeatherDisplay:10.37,2013-01-12 09:11:00,
2013-01-12 04:16:00,36.9,35.6,30.08,SE,135,0.0,0.0,95,0.00,OVC,,0.00,WeatherDisplay:10.37,2013-01-12 09:16:00,
2013-01-12 04:21:00,36.8,35.5,30.08,SE,135,0.0,0.0,95,0.00,OVC,,0.00,WeatherDisplay:10.37,2013-01-12 09:21:00,
2013-01-12 04:26:00,36.7,35.4,30.08,SE,135,0.0,0.0,95,0.00,OVC,,0.00,WeatherDisplay:10.37,2013-01-12 09:26:00,
2013-01-12 04:31:00,36.7,35.4,30.08,SE,135,0.0,0.0,95,0.00,OVC,,0.00,WeatherDisplay:10.37,2013-01-12 09:31:00,
2013-01-12 04:36:00,36.8,35.5,30.08,SE,135,0.0,0.0,95,0.00,OVC,,0.00,WeatherDisplay:10.37,2013-01-12 09:36:00,
2013-01-12 04:41:00,36.8,35.5,30.08,SE,135,0.0,0.0,95,0.00,OVC,,0.00,WeatherDisplay:10.37,2013-01-12 09:41:00,
2013-01-12 04:46:00,36.7,35.4,30.08,SE,135,0.0,0.0,95,0.00,OVC,,0.00,WeatherDisplay:10.37,2013-01-12 09:46:00,
2013-01-12 04:51:00,36.6,35.3,30.09,SE,135,0.0,0.0,95,0.00,OVC,,0.00,WeatherDisplay:10.37,2013-01-12 09:51:00,
2013-01-12 04:56:00,36.5,35.2,30.09,SE,135,0.0,0.0,95,0.00,OVC,,0.00,WeatherDisplay:10.37,2013-01-12 09:56:00,
2013-01-12 05:01:00,36.7,35.4,30.09,SE,135,0.0,0.0,95,0.00,OVC,,0.00,WeatherDisplay:10.37,2013-01-12 10:01:00,
2013-01-12 05:06:00,36.7,35.4,30.10,SE,135,0.0,0.0,95,0.00,OVC,,0.00,WeatherDisplay:10.37,2013-01-12 10:06:00,
2013-01-12 05:11:00,36.7,35.4,30.10,SE,135,0.0,0.0,95,0.00,OVC,,0.00,WeatherDisplay:10.37,2013-01-12 10:11:00,
2013-01-12 05:16:00,36.9,35.6,30.10,North,360,0.5,2.3,95,0.00,OVC,,0.00,WeatherDisplay:10.37,2013-01-12 10:16:00,
2013-01-12 05:21:00,37.0,35.7,30.11,North,360,0.0,0.0,95,0.00,OVC,,0.00,WeatherDisplay:10.37,2013-01-12 10:21:00,
2013-01-12 05:26:00,36.9,35.6,30.10,North,360,0.0,0.0,95,0.00,OVC,,0.00,WeatherDisplay:10.37,2013-01-12 10:26:00,
2013-01-12 05:31:00,36.9,35.6,30.11,North,360,0.0,0.0,95,0.00,OVC,,0.00,WeatherDisplay:10.37,2013-01-12 10:31:00,
2013-01-12 05:36:00,36.8,35.5,30.10,North,360,0.0,0.0,95,0.00,OVC,,0.00,WeatherDisplay:10.37,2013-01-12 10:36:00,
2013-01-12 05:41:00,36.7,35.4,30.10,North,360,0.0,0.0,95,0.00,OVC,,0.00,WeatherDisplay:10.37,2013-01-12 10:41:00,
2013-01-12 05:46:00,36.6,35.3,30.10,North,360,0.0,0.0,95,0.00,OVC,,0.00,WeatherDisplay:10.37,2013-01-12 10:46:00,
2013-01-12 05:51:00,36.5,35.2,30.10,North,360,0.0,0.0,95,0.00,OVC,,0.00,WeatherDisplay:10.37,2013-01-12 10:51:00,
2013-01-12 05:56:00,36.4,35.1,30.10,North,360,0.0,0.0,95,0.00,OVC,,0.00,WeatherDisplay:10.37,2013-01-12 10:56:00,
2013-01-12 06:01:00,36.3,35.0,30.10,North,360,0.0,0.0,95,0.00,OVC,,0.00,WeatherDisplay:10.37,2013-01-12 11:01:00,
2013-01-12 06:06:00,36.3,35.0,30.09,North,360,0.0,0.0,95,0.00,OVC,,0.00,WeatherDisplay:10.37,2013-01-12 11:06:00,
2013-01-12 06:11:00,36.3,35.0,30.10,North,360,0.0,0.0,95,0.00,OVC,,0.00,WeatherDisplay:10.37,2013-01-12 11:11:00,
2013-01-12 06:16:00,36.3,35.0,30.10,North,360,0.0,0.0,95,0.00,OVC,,0.00,WeatherDisplay:10.37,2013-01-12 11:16:00,
2013-01-12 06:21:00,36.4,35.1,30.10,North,360,0.0,0.0,95,0.01,RA,,0.01,WeatherDisplay:10.37,2013-01-12 11:21:00,
2013-01-12 06:26:00,36.5,35.2,30.09,North,360,0.0,0.0,95,0.01,RA,,0.01,WeatherDisplay:10.37,2013-01-12 11:26:00,
2013-01-12 06:31:00,36.5,35.2,30.10,North,360,0.0,0.0,95,0.01,OVC,,0.01,WeatherDisplay:10.37,2013-01-12 11:31:00,
2013-01-12 06:36:00,36.5,35.2,30.10,North,360,0.0,0.0,95,0.01,OVC,,0.01,WeatherDisplay:10.37,2013-01-12 11:36:00,
2013-01-12 06:41:00,36.6,35.3,30.10,North,360,0.0,0.0,95,0.01,OVC,,0.01,WeatherDisplay:10.37,2013-01-12 11:41:00,
2013-01-12 06:46:00,36.6,35.3,30.10,North,360,0.0,0.0,95,0.01,OVC,,0.01,WeatherDisplay:10.37,2013-01-12 11:46:00,
2013-01-12 06:51:00,36.7,35.4,30.11,North,360,0.0,0.0,95,0.01,OVC,,0.01,WeatherDisplay:10.37,2013-01-12 11:51:00,
2013-01-12 06:56:00,36.8,35.5,30.11,North,360,0.0,0.0,95,0.01,OVC,,0.01,WeatherDisplay:10.37,2013-01-12 11:56:00,
2013-01-12 07:01:00,36.8,35.5,30.11,North,360,0.0,0.0,95,0.01,OVC,,0.01,WeatherDisplay:10.37,2013-01-12 12:01:00,
2013-01-12 07:06:00,36.8,35.5,30.11,North,360,0.0,0.0,95,0.01,OVC,,0.01,WeatherDisplay:10.37,2013-01-12 12:06:00,
2013-01-12 07:11:00,36.8,35.5,30.12,North,360,1.7,2.3,95,0.01,OVC,,0.01,WeatherDisplay:10.37,2013-01-12 12:11:00,
2013-01-12 07:16:00,36.9,35.6,30.12,North,360,1.4,2.3,95,0.01,OVC,,0.01,WeatherDisplay:10.37,2013-01-12 12:16:00,
2013-01-12 07:21:00,36.9,35.6,30.13,NW,315,1.1,2.3,95,0.00,OVC,,0.01,WeatherDisplay:10.37,2013-01-12 12:21:00,
2013-01-12 07:26:00,37.2,35.9,30.13,NW,315,1.1,2.3,95,0.00,OVC,,0.01,WeatherDisplay:10.37,2013-01-12 12:26:00,
2013-01-12 07:31:00,37.2,35.9,30.14,NW,315,0.0,0.0,95,0.00,OVC,,0.01,WeatherDisplay:10.37,2013-01-12 12:31:00,
2013-01-12 07:36:00,37.2,35.9,30.14,North,360,0.6,2.3,95,0.00,OVC,,0.01,WeatherDisplay:10.37,2013-01-12 12:36:00,
2013-01-12 07:41:00,37.3,36.0,30.13,NW,315,1.4,2.3,95,0.00,OVC,,0.01,WeatherDisplay:10.37,2013-01-12 12:41:00,
2013-01-12 07:46:00,37.3,36.0,30.14,NNW,337,1.1,2.3,95,0.00,OVC,,0.01,WeatherDisplay:10.37,2013-01-12 12:46:00,
2013-01-12 07:51:00,37.4,36.1,30.14,North,360,1.2,2.3,95,0.00,OVC,,0.01,WeatherDisplay:10.37,2013-01-12 12:51:00,
2013-01-12 07:56:00,37.4,36.1,30.14,North,360,0.3,1.2,95,0.00,OVC,,0.01,WeatherDisplay:10.37,2013-01-12 12:56:00,
2013-01-12 08:01:00,37.5,36.2,30.14,North,360,0.4,2.3,95,0.00,OVC,,0.01,WeatherDisplay:10.37,2013-01-12 13:01:00,
2013-01-12 08:06:00,37.5,36.2,30.14,North,360,0.0,0.0,95,0.00,OVC,,0.01,WeatherDisplay:10.37,2013-01-12 13:06:00,
2013-01-12 08:11:00,37.5,36.2,30.13,North,360,0.0,0.0,95,0.00,OVC,,0.01,WeatherDisplay:10.37,2013-01-12 13:11:00,
2013-01-12 08:16:00,37.5,36.2,30.13,North,360,0.0,0.0,95,0.00,OVC,,0.01,WeatherDisplay:10.37,2013-01-12 13:16:00,
2013-01-12 08:21:00,37.5,36.2,30.13,North,360,0.0,0.0,95,0.00,OVC,,0.01,WeatherDisplay:10.37,2013-01-12 13:21:00,
2013-01-12 08:26:00,37.5,36.2,30.13,North,360,0.0,0.0,95,0.00,OVC,,0.01,WeatherDisplay:10.37,2013-01-12 13:26:00,
2013-01-12 08:31:00,37.6,36.3,30.14,North,360,0.0,0.0,95,0.00,OVC,,0.01,WeatherDisplay:10.37,2013-01-12 13:31:00,
2013-01-12 08:36:00,37.8,36.5,30.14,West,270,0.0,1.0,95,0.00,OVC,,0.01,WeatherDisplay:10.37,2013-01-12 13:36:00,
2013-01-12 08:41:00,37.9,36.6,30.14,West,270,1.2,2.3,95,0.00,OVC,,0.01,WeatherDisplay:10.37,2013-01-12 13:41:00,
2013-01-12 08:46:00,38.1,37.1,30.14,West,270,0.2,1.2,96,0.00,OVC,,0.01,WeatherDisplay:10.37,2013-01-12 13:46:00,
2013-01-12 08:51:00,38.3,37.3,30.14,West,270,0.0,1.2,96,0.00,OVC,,0.01,WeatherDisplay:10.37,2013-01-12 13:51:00,
2013-01-12 08:56:00,38.4,37.4,30.14,West,270,0.3,1.2,96,0.00,OVC,,0.01,WeatherDisplay:10.37,2013-01-12 13:56:00,
2013-01-12 09:01:00,38.5,37.5,30.14,West,270,0.0,0.0,96,0.00,OVC,,0.01,WeatherDisplay:10.37,2013-01-12 14:01:00,
2013-01-12 09:06:00,38.6,37.6,30.14,West,270,0.0,0.0,96,0.00,OVC,,0.01,WeatherDisplay:10.37,2013-01-12 14:06:00,
2013-01-12 09:11:00,38.7,37.7,30.13,West,270,0.0,0.0,96,0.00,OVC,,0.01,WeatherDisplay:10.37,2013-01-12 14:11:00,
2013-01-12 09:16:00,38.9,37.9,30.13,West,270,0.0,0.0,96,0.00,OVC,,0.01,WeatherDisplay:10.37,2013-01-12 14:16:00,
2013-01-12 09:21:00,39.4,38.4,30.13,NNW,337,0.6,2.3,96,0.00,OVC,,0.01,WeatherDisplay:10.37,2013-01-12 14:21:00,
2013-01-12 09:26:00,39.7,38.7,30.13,North,360,0.0,1.0,96,0.00,OVC,,0.01,WeatherDisplay:10.37,2013-01-12 14:26:00,
2013-01-12 09:31:00,39.9,38.9,30.12,SE,135,0.0,2.3,96,0.00,OVC,,0.01,WeatherDisplay:10.37,2013-01-12 14:31:00,
2013-01-12 09:36:00,40.1,39.1,30.12,SE,135,0.0,0.0,96,0.00,OVC,,0.01,WeatherDisplay:10.37,2013-01-12 14:36:00,
2013-01-12 09:41:00,40.3,39.3,30.13,SE,135,0.0,0.0,96,0.00,OVC,,0.01,WeatherDisplay:10.37,2013-01-12 14:41:00,
2013-01-12 09:46:00,40.3,39.3,30.12,SE,135,0.2,2.0,96,0.00,OVC,,0.01,WeatherDisplay:10.37,2013-01-12 14:46:00,
2013-01-12 09:51:00,40.4,39.4,30.12,SE,135,0.3,1.2,96,0.00,OVC,,0.01,WeatherDisplay:10.37,2013-01-12 14:51:00,
2013-01-12 09:56:00,40.4,39.4,30.13,NNW,337,0.0,0.0,96,0.00,OVC,,0.01,WeatherDisplay:10.37,2013-01-12 14:56:00,
2013-01-12 10:01:00,40.5,39.4,30.13,NNW,337,0.0,0.0,96,0.00,OVC,,0.01,WeatherDisplay:10.37,2013-01-12 15:01:00,
2013-01-12 10:06:00,40.5,39.4,30.13,NNW,337,0.0,0.0,96,0.00,OVC,,0.01,WeatherDisplay:10.37,2013-01-12 15:06:00,
2013-01-12 10:11:00,40.4,39.4,30.12,NE,45,0.9,2.3,96,0.00,OVC,,0.01,WeatherDisplay:10.37,2013-01-12 15:11:00,
2013-01-12 10:16:00,40.5,39.4,30.12,NE,45,0.0,0.0,96,0.00,OVC,,0.01,WeatherDisplay:10.37,2013-01-12 15:16:00,
2013-01-12 10:21:00,40.5,39.4,30.13,North,360,1.5,2.3,96,0.00,OVC,,0.01,WeatherDisplay:10.37,2013-01-12 15:21:00,
2013-01-12 10:26:00,40.4,39.4,30.13,NNE,22,0.0,0.0,96,0.00,OVC,,0.01,WeatherDisplay:10.37,2013-01-12 15:26:00,
2013-01-12 10:31:00,40.4,39.4,30.12,NNE,22,0.0,0.0,96,0.00,OVC,,0.01,WeatherDisplay:10.37,2013-01-12 15:31:00,
2013-01-12 10:36:00,40.4,39.4,30.13,West,270,0.4,2.3,96,0.00,OVC,,0.01,WeatherDisplay:10.37,2013-01-12 15:36:00,
2013-01-12 10:41:00,40.3,39.3,30.12,NNW,337,0.0,0.0,96,0.00,OVC,,0.01,WeatherDisplay:10.37,2013-01-12 15:41:00,
2013-01-12 10:46:00,40.3,39.3,30.13,West,270,0.3,1.0,96,0.00,OVC,,0.01,WeatherDisplay:10.37,2013-01-12 15:46:00,
2013-01-12 10:51:00,40.3,39.3,30.12,SE,135,0.6,2.3,96,0.00,OVC,,0.01,WeatherDisplay:10.37,2013-01-12 15:51:00,
2013-01-12 10:56:00,40.3,39.3,30.12,North,360,0.8,2.3,96,0.00,OVC,,0.01,WeatherDisplay:10.37,2013-01-12 15:56:00,
2013-01-12 11:01:00,40.3,39.3,30.13,NW,315,0.0,1.2,96,0.00,OVC,,0.01,WeatherDisplay:10.37,2013-01-12 16:01:00,
2013-01-12 11:06:00,40.3,39.3,30.10,NW,315,0.9,2.3,96,0.00,OVC,,0.01,WeatherDisplay:10.37,2013-01-12 16:06:00,
2013-01-12 11:11:00,40.3,39.3,30.10,WSW,247,0.8,2.3,96,0.00,OVC,,0.01,WeatherDisplay:10.37,2013-01-12 16:11:00,
2013-01-12 11:16:00,40.5,39.4,30.10,WSW,247,0.0,0.0,96,0.00,OVC,,0.01,WeatherDisplay:10.37,2013-01-12 16:16:00,
2013-01-12 11:21:00,40.6,39.5,30.10,WSW,247,0.0,0.0,96,0.00,OVC,,0.01,WeatherDisplay:10.37,2013-01-12 16:21:00,
2013-01-12 11:26:00,40.6,39.5,30.10,West,270,0.6,2.3,96,0.00,OVC,,0.01,WeatherDisplay:10.37,2013-01-12 16:26:00,
2013-01-12 11:31:00,40.6,39.5,30.09,West,270,0.0,0.0,96,0.00,OVC,,0.01,WeatherDisplay:10.37,2013-01-12 16:31:00,
2013-01-12 11:36:00,40.8,39.7,30.09,West,270,0.0,0.0,96,0.00,OVC,,0.01,WeatherDisplay:10.37,2013-01-12 16:36:00,
2013-01-12 11:41:00,40.9,39.8,30.08,West,270,0.0,0.0,96,0.00,OVC,,0.01,WeatherDisplay:10.37,2013-01-12 16:41:00,
2013-01-12 11:46:00,40.9,39.8,30.08,West,270,0.0,0.0,96,0.00,OVC,,0.01,WeatherDisplay:10.37,2013-01-12 16:46:00,
2013-01-12 11:51:00,41.1,40.0,30.08,West,270,0.0,0.0,96,0.00,OVC,,0.01,WeatherDisplay:10.37,2013-01-12 16:51:00,
2013-01-12 11:56:00,41.2,40.1,30.06,West,270,0.0,0.0,96,0.00,OVC,,0.01,WeatherDisplay:10.37,2013-01-12 16:56:00,
2013-01-12 12:01:00,41.1,40.0,30.06,SSE,157,0.8,2.3,96,0.00,OVC,,0.01,WeatherDisplay:10.37,2013-01-12 17:01:00,
2013-01-12 12:06:00,41.2,40.1,30.06,NW,315,0.0,0.0,96,0.00,OVC,,0.01,WeatherDisplay:10.37,2013-01-12 17:06:00,
2013-01-12 12:11:00,41.4,40.3,30.06,NW,315,0.0,0.0,96,0.01,RA,,0.02,WeatherDisplay:10.37,2013-01-12 17:11:00,
2013-01-12 12:16:00,41.3,40.2,30.04,NW,315,0.0,0.0,96,0.01,RA,,0.02,WeatherDisplay:10.37,2013-01-12 17:16:00,
2013-01-12 12:21:00,41.4,40.3,30.05,NW,315,0.0,0.0,96,0.01,OVC,,0.02,WeatherDisplay:10.37,2013-01-12 17:21:00,
2013-01-12 12:26:00,41.6,40.5,30.05,NW,315,1.1,2.3,96,0.01,OVC,,0.02,WeatherDisplay:10.37,2013-01-12 17:26:00,
2013-01-12 12:31:00,41.7,40.6,30.05,NW,315,0.0,1.2,96,0.01,OVC,,0.02,WeatherDisplay:10.37,2013-01-12 17:31:00,
2013-01-12 12:36:00,41.7,40.6,30.05,NW,315,0.0,0.0,96,0.01,OVC,,0.02,WeatherDisplay:10.37,2013-01-12 17:36:00,
2013-01-12 12:41:00,41.8,40.7,30.04,NW,315,0.0,0.0,96,0.01,OVC,,0.02,WeatherDisplay:10.37,2013-01-12 17:41:00,
2013-01-12 12:46:00,41.7,40.6,30.04,NW,315,0.0,0.0,96,0.01,OVC,,0.02,WeatherDisplay:10.37,2013-01-12 17:46:00,
2013-01-12 12:51:00,41.9,40.8,30.04,NW,315,0.0,0.0,96,0.01,OVC,,0.02,WeatherDisplay:10.37,2013-01-12 17:51:00,
2013-01-12 12:56:00,42.2,41.1,30.04,NW,315,0.0,0.0,96,0.01,OVC,,0.02,WeatherDisplay:10.37,2013-01-12 17:56:00,
2013-01-12 13:01:00,42.4,41.3,30.04,NW,315,0.0,0.0,96,0.01,OVC,,0.02,WeatherDisplay:10.37,2013-01-12 18:01:00,
2013-01-12 13:06:00,42.4,41.3,30.04,NW,315,0.0,0.0,96,0.01,OVC,,0.02,WeatherDisplay:10.37,2013-01-12 18:06:00,
2013-01-12 13:11:00,42.6,41.5,30.05,NW,315,0.1,1.2,96,0.00,OVC,,0.02,WeatherDisplay:10.37,2013-01-12 18:11:00,
2013-01-12 13:16:00,42.3,41.2,30.05,West,270,1.0,2.3,96,0.00,OVC,,0.02,WeatherDisplay:10.37,2013-01-12 18:16:00,
2013-01-12 13:21:00,42.2,41.1,30.04,SSW,202,0.1,1.2,96,0.00,OVC,,0.02,WeatherDisplay:10.37,2013-01-12 18:21:00,
2013-01-12 13:26:00,42.4,41.3,30.05,West,270,0.2,1.0,96,0.00,OVC,,0.02,WeatherDisplay:10.37,2013-01-12 18:26:00,
2013-01-12 13:31:00,42.3,41.2,30.05,North,360,1.0,2.3,96,0.00,OVC,,0.02,WeatherDisplay:10.37,2013-01-12 18:31:00,
2013-01-12 13:36:00,42.1,41.0,30.05,WNW,292,1.7,2.3,96,0.00,OVC,,0.02,WeatherDisplay:10.37,2013-01-12 18:36:00,
2013-01-12 13:41:00,42.2,41.1,30.05,North,360,1.2,2.3,96,0.00,OVC,,0.02,WeatherDisplay:10.37,2013-01-12 18:41:00,
2013-01-12 13:46:00,42.2,41.1,30.06,WNW,292,1.4,2.3,96,0.00,OVC,,0.02,WeatherDisplay:10.37,2013-01-12 18:46:00,
2013-01-12 13:51:00,42.2,41.1,30.06,WNW,292,0.9,2.3,96,0.00,OVC,,0.02,WeatherDisplay:10.37,2013-01-12 18:51:00,
2013-01-12 13:56:00,42.2,41.1,30.07,WSW,247,1.6,2.3,96,0.00,OVC,,0.02,WeatherDisplay:10.37,2013-01-12 18:56:00,
2013-01-12 14:01:00,42.3,41.2,30.06,WNW,292,0.0,1.2,96,0.00,OVC,,0.02,WeatherDisplay:10.37,2013-01-12 19:01:00,
2013-01-12 14:06:00,42.4,41.3,30.05,WNW,292,0.0,0.0,96,0.00,OVC,,0.02,WeatherDisplay:10.37,2013-01-12 19:06:00,
2013-01-12 14:11:00,42.3,41.2,30.04,SSE,157,1.2,2.3,96,0.00,OVC,,0.02,WeatherDisplay:10.37,2013-01-12 19:11:00,
2013-01-12 14:16:00,42.5,41.4,30.04,SSE,157,0.0,1.2,96,0.00,OVC,,0.02,WeatherDisplay:10.37,2013-01-12 19:16:00,
2013-01-12 14:21:00,42.6,41.5,30.05,SSE,157,0.0,0.0,96,0.00,OVC,,0.02,WeatherDisplay:10.37,2013-01-12 19:21:00,
2013-01-12 14:26:00,42.6,41.5,30.05,SSE,157,0.0,0.0,96,0.00,OVC,,0.02,WeatherDisplay:10.37,2013-01-12 19:26:00,
2013-01-12 14:31:00,42.8,41.7,30.05,SSE,157,0.0,0.0,96,0.00,OVC,,0.02,WeatherDisplay:10.37,2013-01-12 19:31:00,
2013-01-12 14:36:00,42.8,41.7,30.06,SSE,157,0.0,0.0,96,0.00,OVC,,0.02,WeatherDisplay:10.37,2013-01-12 19:36:00,
2013-01-12 14:41:00,42.8,41.7,30.05,SSE,157,0.2,1.2,96,0.00,OVC,,0.02,WeatherDisplay:10.37,2013-01-12 19:41:00,
2013-01-12 14:46:00,42.7,41.6,30.05,SSE,157,0.0,1.2,96,0.00,OVC,,0.02,WeatherDisplay:10.37,2013-01-12 19:46:00,
2013-01-12 14:51:00,42.8,41.7,30.05,SSE,157,0.0,0.0,96,0.00,OVC,,0.02,WeatherDisplay:10.37,2013-01-12 19:51:00,
2013-01-12 14:56:00,42.9,41.8,30.05,SSE,157,0.0,0.0,96,0.00,OVC,,0.02,WeatherDisplay:10.37,2013-01-12 19:56:00,
2013-01-12 15:01:00,42.9,41.8,30.05,SSE,157,0.0,0.0,96,0.00,OVC,,0.02,WeatherDisplay:10.37,2013-01-12 20:01:00,
2013-01-12 15:06:00,42.9,41.8,30.05,SSE,157,0.0,0.0,96,0.00,OVC,,0.02,WeatherDisplay:10.37,2013-01-12 20:06:00,
2013-01-12 15:11:00,42.9,41.8,30.04,SSE,157,0.0,0.0,96,0.00,OVC,,0.02,WeatherDisplay:10.37,2013-01-12 20:11:00,
2013-01-12 15:16:00,42.9,41.8,30.04,SSE,157,0.0,0.0,96,0.00,OVC,,0.02,WeatherDisplay:10.37,2013-01-12 20:16:00,
2013-01-12 15:21:00,42.9,41.8,30.04,SSE,157,0.0,0.0,96,0.00,OVC,,0.02,WeatherDisplay:10.37,2013-01-12 20:21:00,
2013-01-12 15:26:00,42.8,41.7,30.05,SSE,157,0.0,0.0,96,0.00,OVC,,0.02,WeatherDisplay:10.37,2013-01-12 20:26:00,
2013-01-12 15:31:00,42.9,41.8,30.05,SSE,157,0.0,0.0,96,0.00,OVC,,0.02,WeatherDisplay:10.37,2013-01-12 20:31:00,
2013-01-12 15:36:00,42.8,41.7,30.05,SSE,157,0.0,0.0,96,0.00,OVC,,0.02,WeatherDisplay:10.37,2013-01-12 20:36:00,
2013-01-12 15:41:00,42.8,41.7,30.05,SSE,157,0.0,0.0,96,0.00,OVC,,0.02,WeatherDisplay:10.37,2013-01-12 20:41:00,
2013-01-12 15:46:00,42.7,41.6,30.05,SSE,157,0.0,0.0,96,0.00,OVC,,0.02,WeatherDisplay:10.37,2013-01-12 20:46:00,
2013-01-12 15:51:00,42.7,41.6,30.05,SSE,157,0.0,0.0,96,0.00,OVC,,0.02,WeatherDisplay:10.37,2013-01-12 20:51:00,
2013-01-12 15:56:00,42.6,41.5,30.05,SSE,157,0.0,1.2,96,0.00,OVC,,0.02,WeatherDisplay:10.37,2013-01-12 20:56:00,
2013-01-12 16:01:00,42.6,41.5,30.04,SSE,157,0.0,0.0,96,0.00,OVC,,0.02,WeatherDisplay:10.37,2013-01-12 21:01:00,
2013-01-12 16:06:00,42.5,41.4,30.05,SSE,157,0.0,0.0,96,0.00,OVC,,0.02,WeatherDisplay:10.37,2013-01-12 21:06:00,
2013-01-12 16:11:00,42.4,41.3,30.05,SSE,157,0.0,0.0,96,0.00,OVC,,0.02,WeatherDisplay:10.37,2013-01-12 21:11:00,
2013-01-12 16:16:00,42.4,41.3,30.05,SSE,157,0.0,0.0,96,0.00,OVC,,0.02,WeatherDisplay:10.37,2013-01-12 21:16:00,
2013-01-12 16:21:00,42.2,41.1,30.05,SSE,157,0.0,0.0,96,0.00,OVC,,0.02,WeatherDisplay:10.37,2013-01-12 21:21:00,
2013-01-12 16:26:00,42.2,41.1,30.05,SSE,157,0.0,0.0,96,0.00,OVC,,0.02,WeatherDisplay:10.37,2013-01-12 21:26:00,
2013-01-12 16:31:00,42.1,41.0,30.05,SSE,157,0.0,0.0,96,0.00,OVC,,0.02,WeatherDisplay:10.37,2013-01-12 21:31:00,
2013-01-12 16:36:00,41.9,40.8,30.04,SSE,157,0.0,0.0,96,0.00,OVC,,0.02,WeatherDisplay:10.37,2013-01-12 21:36:00,
2013-01-12 16:41:00,41.9,40.8,30.04,SSE,157,0.0,0.0,96,0.00,OVC,,0.02,WeatherDisplay:10.37,2013-01-12 21:41:00,
2013-01-12 16:46:00,41.9,40.8,30.04,SSE,157,0.0,0.0,96,0.00,OVC,,0.02,WeatherDisplay:10.37,2013-01-12 21:46:00,
2013-01-12 16:51:00,41.9,40.8,30.04,SSE,157,0.0,0.0,96,0.00,OVC,,0.02,WeatherDisplay:10.37,2013-01-12 21:51:00,
2013-01-12 16:56:00,41.8,40.7,30.04,SSE,157,0.0,0.0,96,0.00,OVC,,0.02,WeatherDisplay:10.37,2013-01-12 21:56:00,
2013-01-12 17:01:00,41.7,40.6,30.04,SSE,157,0.0,0.0,96,0.00,OVC,,0.02,WeatherDisplay:10.37,2013-01-12 22:01:00,
2013-01-12 17:06:00,41.7,40.6,30.05,SSE,157,0.0,0.0,96,0.00,OVC,,0.02,WeatherDisplay:10.37,2013-01-12 22:06:00,
2013-01-12 17:11:00,41.8,40.7,30.05,SSE,157,0.0,0.0,96,0.00,OVC,,0.02,WeatherDisplay:10.37,2013-01-12 22:11:00,
2013-01-12 17:16:00,41.8,40.7,30.06,NNW,337,0.7,2.3,96,0.00,OVC,,0.02,WeatherDisplay:10.37,2013-01-12 22:16:00,
2013-01-12 17:21:00,41.7,40.6,30.05,NNW,337,0.0,0.0,96,0.00,OVC,,0.02,WeatherDisplay:10.37,2013-01-12 22:21:00,
2013-01-12 17:26:00,41.8,40.7,30.05,NNW,337,0.0,0.0,96,0.00,OVC,,0.02,WeatherDisplay:10.37,2013-01-12 22:26:00,
2013-01-12 17:31:00,41.8,40.7,30.05,NNW,337,0.0,0.0,96,0.00,OVC,,0.02,WeatherDisplay:10.37,2013-01-12 22:31:00,
2013-01-12 17:36:00,41.8,40.7,30.06,NNW,337,0.0,0.0,96,0.00,OVC,,0.02,WeatherDisplay:10.37,2013-01-12 22:36:00,
2013-01-12 17:41:00,41.7,40.6,30.06,NNW,337,0.0,0.0,96,0.00,OVC,,0.02,WeatherDisplay:10.37,2013-01-12 22:41:00,
2013-01-12 17:46:00,41.7,40.6,30.06,NNW,337,0.0,0.0,96,0.00,OVC,,0.02,WeatherDisplay:10.37,2013-01-12 22:46:00,
2013-01-12 17:51:00,41.7,40.6,30.06,NNW,337,0.0,0.0,96,0.00,OVC,,0.02,WeatherDisplay:10.37,2013-01-12 22:51:00,
2013-01-12 17:56:00,41.7,40.6,30.06,NNW,337,0.0,0.0,96,0.00,OVC,,0.02,WeatherDisplay:10.37,2013-01-12 22:56:00,
2013-01-12 18:01:00,41.6,40.5,30.06,NNW,337,0.0,0.0,96,0.00,OVC,,0.02,WeatherDisplay:10.37,2013-01-12 23:01:00,
2013-01-12 18:06:00,41.4,40.3,30.06,NNW,337,0.0,0.0,96,0.00,OVC,,0.02,WeatherDisplay:10.37,2013-01-12 23:06:00,
2013-01-12 18:11:00,41.4,40.3,30.06,NNW,337,0.0,0.0,96,0.00,OVC,,0.02,WeatherDisplay:10.37,2013-01-12 23:11:00,
2013-01-12 18:16:00,41.4,40.3,30.06,NNW,337,0.0,0.0,96,0.00,OVC,,0.02,WeatherDisplay:10.37,2013-01-12 23:16:00,
2013-01-12 18:21:00,41.3,40.2,30.06,NNW,337,0.0,0.0,96,0.00,OVC,,0.02,WeatherDisplay:10.37,2013-01-12 23:21:00,
2013-01-12 18:26:00,41.2,40.1,30.06,NNW,337,0.0,0.0,96,0.00,OVC,,0.02,WeatherDisplay:10.37,2013-01-12 23:26:00,
2013-01-12 18:31:00,41.1,40.0,30.06,NNW,337,0.0,0.0,96,0.00,OVC,,0.02,WeatherDisplay:10.37,2013-01-12 23:31:00,
2013-01-12 18:36:00,41.1,40.0,30.05,NNW,337,0.0,0.0,96,0.00,OVC,,0.02,WeatherDisplay:10.37,2013-01-12 23:36:00,
2013-01-12 18:41:00,41.1,40.0,30.05,NNW,337,0.0,0.0,96,0.00,OVC,,0.02,WeatherDisplay:10.37,2013-01-12 23:41:00,
2013-01-12 18:46:00,41.1,40.0,30.05,NNW,337,0.0,0.0,96,0.00,OVC,,0.02,WeatherDisplay:10.37,2013-01-12 23:46:00,
2013-01-12 18:51:00,40.9,39.8,30.05,NNW,337,0.0,0.0,96,0.00,OVC,,0.02,WeatherDisplay:10.37,2013-01-12 23:51:00,
2013-01-12 18:56:00,40.9,39.8,30.05,NNW,337,0.0,0.0,96,0.00,OVC,,0.02,WeatherDisplay:10.37,2013-01-12 23:56:00,
2013-01-12 19:01:00,40.9,39.8,30.04,NNW,337,0.0,0.0,96,0.00,OVC,,0.03,WeatherDisplay:10.37,2013-01-13 00:01:00,
2013-01-12 19:06:00,40.8,39.7,30.05,NNW,337,0.0,0.0,96,0.01,RA,,0.03,WeatherDisplay:10.37,2013-01-13 00:06:00,
2013-01-12 19:11:00,40.9,39.8,30.05,NNW,337,0.0,0.0,96,0.01,RA,,0.03,WeatherDisplay:10.37,2013-01-13 00:11:00,
2013-01-12 19:16:00,40.9,39.8,30.05,NNW,337,0.2,1.2,96,0.01,OVC,,0.03,WeatherDisplay:10.37,2013-01-13 00:16:00,
2013-01-12 19:21:00,40.9,39.8,30.05,NNW,337,0.0,0.0,96,0.01,OVC,,0.03,WeatherDisplay:10.37,2013-01-13 00:21:00,
2013-01-12 19:26:00,40.9,39.8,30.04,NNW,337,0.0,0.0,96,0.01,OVC,,0.03,WeatherDisplay:10.37,2013-01-13 00:26:00,
2013-01-12 19:31:00,41.0,39.9,30.05,NNW,337,0.0,0.0,96,0.01,OVC,,0.03,WeatherDisplay:10.37,2013-01-13 00:31:00,
2013-01-12 19:36:00,40.9,39.8,30.04,NNW,337,0.0,0.0,96,0.01,OVC,,0.03,WeatherDisplay:10.37,2013-01-13 00:36:00,
2013-01-12 19:41:00,40.9,39.8,30.04,NNW,337,0.0,0.0,96,0.01,OVC,,0.03,WeatherDisplay:10.37,2013-01-13 00:41:00,
2013-01-12 19:46:00,40.9,39.8,30.04,NNW,337,0.0,0.0,96,0.01,OVC,,0.03,WeatherDisplay:10.37,2013-01-13 00:46:00,
2013-01-12 19:51:00,40.9,39.8,30.04,NNW,337,0.0,0.0,96,0.01,OVC,,0.03,WeatherDisplay:10.37,2013-01-13 00:51:00,
2013-01-12 19:56:00,40.9,39.8,30.04,NNW,337,0.0,0.0,96,0.01,OVC,,0.03,WeatherDisplay:10.37,2013-01-13 00:56:00,
2013-01-12 20:01:00,40.9,39.8,30.05,NNW,337,0.0,0.0,96,0.01,OVC,,0.03,WeatherDisplay:10.37,2013-01-13 01:01:00,
2013-01-12 20:06:00,40.9,39.8,30.05,NNW,337,0.0,0.0,96,0.00,OVC,,0.03,WeatherDisplay:10.37,2013-01-13 01:06:00,
2013-01-12 20:11:00,40.9,39.8,30.05,NNW,337,0.0,0.0,96,0.00,OVC,,0.03,WeatherDisplay:10.37,2013-01-13 01:11:00,
2013-01-12 20:16:00,40.9,39.8,30.05,NNW,337,0.0,0.0,96,0.00,OVC,,0.03,WeatherDisplay:10.37,2013-01-13 01:16:00,
2013-01-12 20:21:00,40.9,39.8,30.04,NNW,337,0.0,0.0,96,0.00,OVC,,0.03,WeatherDisplay:10.37,2013-01-13 01:21:00,
2013-01-12 20:26:00,40.9,39.8,30.04,NNW,337,0.0,0.0,96,0.00,OVC,,0.03,WeatherDisplay:10.37,2013-01-13 01:26:00,
2013-01-12 20:31:00,40.9,39.8,30.05,NNW,337,1.3,2.3,96,0.00,OVC,,0.03,WeatherDisplay:10.37,2013-01-13 01:31:00,
2013-01-12 20:36:00,41.1,40.0,30.05,NNW,337,0.4,1.2,96,0.00,OVC,,0.03,WeatherDisplay:10.37,2013-01-13 01:36:00,
2013-01-12 20:41:00,40.9,39.8,30.06,NNW,337,0.0,0.0,96,0.00,OVC,,0.03,WeatherDisplay:10.37,2013-01-13 01:41:00,
2013-01-12 20:46:00,40.9,39.8,30.06,NNW,337,0.0,0.0,96,0.00,OVC,,0.03,WeatherDisplay:10.37,2013-01-13 01:46:00,
2013-01-12 20:51:00,40.9,39.8,30.06,NNW,337,0.0,0.0,96,0.00,OVC,,0.03,WeatherDisplay:10.37,2013-01-13 01:51:00,
2013-01-12 20:56:00,40.9,39.8,30.07,NNW,337,0.0,0.0,96,0.00,OVC,,0.03,WeatherDisplay:10.37,2013-01-13 01:56:00,
2013-01-12 21:01:00,40.9,39.8,30.07,NNW,337,0.0,0.0,96,0.00,,,0.03,WeatherDisplay:10.37,2013-01-13 02:01:00,
2013-01-12 21:06:00,40.9,39.8,30.07,NNW,337,0.0,0.0,96,0.00,,,0.03,WeatherDisplay:10.37,2013-01-13 02:06:00,
2013-01-12 21:11:00,40.8,39.7,30.06,NNW,337,0.0,0.0,96,0.00,,,0.03,WeatherDisplay:10.37,2013-01-13 02:11:00,
2013-01-12 21:16:00,40.9,39.8,30.06,NNW,337,0.0,0.0,96,0.00,,,0.03,WeatherDisplay:10.37,2013-01-13 02:16:00,
2013-01-12 21:21:00,40.8,39.7,30.06,NNW,337,0.0,0.0,96,0.00,,,0.03,WeatherDisplay:10.37,2013-01-13 02:21:00,
2013-01-12 21:26:00,40.7,39.6,30.05,NNW,337,0.0,0.0,96,0.00,,,0.03,WeatherDisplay:10.37,2013-01-13 02:26:00,
2013-01-12 21:31:00,40.7,39.6,30.06,NNW,337,0.0,0.0,96,0.00,,,0.03,WeatherDisplay:10.37,2013-01-13 02:31:00,
2013-01-12 21:36:00,40.6,39.5,30.06,NNW,337,0.0,0.0,96,0.00,,,0.03,WeatherDisplay:10.37,2013-01-13 02:36:00,
2013-01-12 21:41:00,40.7,39.6,30.06,NNW,337,0.0,0.0,96,0.00,,,0.03,WeatherDisplay:10.37,2013-01-13 02:41:00,
2013-01-12 21:46:00,40.6,39.5,30.06,NNW,337,0.0,0.0,96,0.00,,,0.03,WeatherDisplay:10.37,2013-01-13 02:46:00,
2013-01-12 21:51:00,40.5,39.4,30.06,NNW,337,0.0,0.0,96,0.00,,,0.03,WeatherDisplay:10.37,2013-01-13 02:51:00,
2013-01-12 21:56:00,40.5,39.4,30.06,NNW,337,0.0,0.0,96,0.00,,,0.03,WeatherDisplay:10.37,2013-01-13 02:56:00,
2013-01-12 22:01:00,40.7,39.6,30.06,NNW,337,0.0,0.0,96,0.00,,,0.03,WeatherDisplay:10.37,2013-01-13 03:01:00,
2013-01-12 22:06:00,40.7,39.6,30.06,NNW,337,0.0,0.0,96,0.00,,,0.03,WeatherDisplay:10.37,2013-01-13 03:06:00,
2013-01-12 22:11:00,40.7,39.6,30.06,NNW,337,0.0,0.0,96,0.00,,,0.03,WeatherDisplay:10.37,2013-01-13 03:11:00,
2013-01-12 22:16:00,40.6,39.5,30.06,NNW,337,0.0,0.0,96,0.00,,,0.03,WeatherDisplay:10.37,2013-01-13 03:16:00,
2013-01-12 22:21:00,40.6,39.5,30.06,NNW,337,0.0,0.0,96,0.00,,,0.03,WeatherDisplay:10.37,2013-01-13 03:21:00,
2013-01-12 22:26:00,40.5,39.4,30.06,NNW,337,0.0,0.0,96,0.00,,,0.03,WeatherDisplay:10.37,2013-01-13 03:26:00,
2013-01-12 22:31:00,40.5,39.4,30.06,NNW,337,0.0,0.0,96,0.00,,,0.03,WeatherDisplay:10.37,2013-01-13 03:31:00,
2013-01-12 22:36:00,40.5,39.4,30.06,NNW,337,0.0,0.0,96,0.00,,,0.03,WeatherDisplay:10.37,2013-01-13 03:36:00,
2013-01-12 22:41:00,40.4,39.4,30.06,NNW,337,0.0,0.0,96,0.00,,,0.03,WeatherDisplay:10.37,2013-01-13 03:41:00,
2013-01-12 22:46:00,40.5,39.4,30.06,NNW,337,0.0,0.0,96,0.00,,,0.03,WeatherDisplay:10.37,2013-01-13 03:46:00,
2013-01-12 22:51:00,40.7,39.6,30.06,NNW,337,0.0,0.0,96,0.00,,,0.03,WeatherDisplay:10.37,2013-01-13 03:51:00,
2013-01-12 22:56:00,40.7,39.6,30.06,NNW,337,0.0,0.0,96,0.00,,,0.03,WeatherDisplay:10.37,2013-01-13 03:56:00,
2013-01-12 23:01:00,40.7,39.6,30.06,NNW,337,0.0,0.0,96,0.00,,,0.03,WeatherDisplay:10.37,2013-01-13 04:01:00,
2013-01-12 23:06:00,40.7,39.6,30.05,NNW,337,0.0,0.0,96,0.00,,,0.03,WeatherDisplay:10.37,2013-01-13 04:06:00,
2013-01-12 23:11:00,40.6,39.5,30.05,NNW,337,0.0,0.0,96,0.00,,,0.03,WeatherDisplay:10.37,2013-01-13 04:11:00,
2013-01-12 23:16:00,40.5,39.4,30.06,NNW,337,0.2,1.2,96,0.00,,,0.03,WeatherDisplay:10.37,2013-01-13 04:16:00,
2013-01-12 23:21:00,40.5,39.4,30.06,NNW,337,0.0,0.0,96,0.00,,,0.03,WeatherDisplay:10.37,2013-01-13 04:21:00,
2013-01-12 23:26:00,40.5,39.4,30.06,NNW,337,0.0,0.0,96,0.00,,,0.03,WeatherDisplay:10.37,2013-01-13 04:26:00,
2013-01-12 23:31:00,40.5,39.4,30.07,NNW,337,0.0,0.0,96,0.00,,,0.03,WeatherDisplay:10.37,2013-01-13 04:31:00,
2013-01-12 23:36:00,40.5,39.4,30.07,NNW,337,0.0,0.0,96,0.00,,,0.03,WeatherDisplay:10.37,2013-01-13 04:36:00,
2013-01-12 23:41:00,40.6,39.5,30.07,NNW,337,0.0,0.0,96,0.00,,,0.03,WeatherDisplay:10.37,2013-01-13 04:41:00,
2013-01-12 23:46:00,40.7,39.6,30.07,NNW,337,0.0,0.0,96,0.00,,,0.03,WeatherDisplay:10.37,2013-01-13 04:46:00,
2013-01-12 23:51:00,40.7,39.6,30.07,NNW,337,0.0,0.0,96,0.00,,,0.03,WeatherDisplay:10.37,2013-01-13 04:51:00,
2013-01-12 23:56:00,40.7,39.6,30.07,NNW,337,0.0,0.0,96,0.01,RA,,0.04,WeatherDisplay:10.37,2013-01-13 04:56:00,